SCOUT B DEB, 2498

Orbit data source: Space-Track

SCOUT B DEB, 2498 is space debris in LEO originally from a launch on Fri, 10 Jun 1966 UTC launched from the Wallops Island (WLPIS). Debris objects in space refer to the collection of defunct objects orbiting the Earth. Examples of debris include non-operational satellites, rocket bodies, and fragments generated from explosions, collisions, or faulty payload assembly.

Loading next visibility...
SCOUT B DEB details
Identifier
2498, 1966-052C
Orbit
LEO
Last TLE update1 day ago
Origin
Flag of USUSAF SSD (US)
ManufacturerUnknown
MissionSpacecraft
Bus & MotorUnknown
MassUnknown
Launch date (UTC)
1966-06-10 (59 years ago)
Launch vehicleUnknown
Launch site
Wallops Island (WLPIS)
Object type
Payload
Rocket body
Debris
Shape & HBRUnknown
Radar Cross SectionSmall (<0.1 m²)

Expand to show TLE details & history

TLE from 1 day ago
0 SCOUT B DEB
1 02498U 66052C   24355.84655538  .00001439  00000-0  12291-2 0  9999
2 02498  40.6277 179.1153 2081223  76.1443 306.0821 10.55662126419425
Epoch: 2024-12-20T20:19Z
Definitive object data (Epoch: 2024-12-20T20:19:02.384Z)
Latitude-0.00004°
Longitude144.44911°
Altitude1,618.483 km
Speed7.37 km/s
True Right ascension11h 56m 27s
True Declination0° 00' 00"
Sunlit
Object was in daylight at TLE epoch
Visualization TLE readout
Latitude-21.81388°
Longitude112.95062°
Altitude2,849.522 km
Speed6.405 km/s
Apparent Right ascension12h 06m 02s
Apparent Declination-42° 25' 21"
Sunlit
Object is in daylight
Visualization observer readout
Local Sidereal Time05:15:13
Azimuth119.849° SE
Elevation-33.873°
Doppler factor1
Orbital elements
Apogee altitude4,228.873 km
Perigee altitude574.35 km
Semi-major axis8,779.748 km
Eccentricity0.2081223
Inclination40.6277°
RAAN179.1153°
Arg. of periapsis76.1443°
True anomaly283.92582°
Mean anomaly306.0821°
Eccentric anomaly295.30147°
Mean motion2.63828 °/min
BSTAR0.0012291
Orbital period136.45 mins
Loading maneuver chart data...
Loading historical data...
Loading historical data...
Loading historical data...
Loading historical data...
Loading historical data...
Loading historical data...
Loading historical data...
Other satellites on launch #52 in the year 1966 (1966-06-10 UTC)

SCOUT B DEB Visibility forecast

Observer location: undefined°, undefined

Span
Click to sort rows by Start time (UTC) header in descending order
Start Az.
Max El. time (UTC)
Max El. Az.
Max El.
End time (UTC)
End Az.
8 mins2024-12-22 15:40:30.834Z224.772° SW2024-12-22 15:45:30.834Z157.88° S32.04°2024-12-22 15:48:30.834Z92.882° ESE
7 mins2024-12-22 18:05:30.834Z269.255° W2024-12-22 18:08:30.834Z14.607° NNE44.686°2024-12-22 18:12:30.834Z84.786° E
9 mins2024-12-22 20:28:30.834Z274.209° WNW2024-12-22 20:31:30.834Z200.236° SSW41.068°2024-12-22 20:37:30.834Z119.826° SE
9 mins2024-12-22 22:52:30.834Z239.562° WSW2024-12-22 22:55:30.834Z205.694° SW19.144°2024-12-22 23:01:30.834Z165.895° S
|